Location: Altoona
(40.5167°N, 78.4000°W)
Time: 08:20:32
(UTC-05:00)

SPOT 5 - Pass Details

Date: 21 August 2017
Orbit: 624 x 815 km, 98.4° (Epoch: 23 November)

Event Time Altitude Azimuth Distance (km) Brightness Sun altitude
Exits shadow 22:33:31 87° 201° (SSW) 718 2.7 -25.6°
Maximum altitude 22:33:36 88° 256° (WSW) 716 2.7 -25.6°
Drops below altitude 10° 22:38:17 10° 346° (NNW) 2,134 6.1 -26.2°
Sets 22:40:28 0° 347° (NNW) 3,026 7.0 -26.5°
